Time,TemperatureF,DewpointF,PressureIn,WindDirection,WindDirectionDegrees,WindSpeedMPH,WindSpeedGustMPH,Humidity,HourlyPrecipIn,Conditions,Clouds,dailyrainin,SoftwareType,DateUTC
2013-01-12 00:09:00,63.1,62.0,30.04,South,169,0.0,0.0,97,0.00,,,0.00,weatherlink.com 1.10,2013-01-12 06:09:00,
2013-01-12 00:24:00,63.0,62.0,30.05,South,169,0.0,0.0,97,0.00,,,0.00,weatherlink.com 1.10,2013-01-12 06:24:00,
2013-01-12 00:39:00,62.7,62.0,30.04,South,169,0.0,0.0,97,0.01,,,0.01,weatherlink.com 1.10,2013-01-12 06:39:00,
2013-01-12 00:54:00,62.5,62.0,30.05,South,169,0.0,0.0,97,0.01,,,0.01,weatherlink.com 1.10,2013-01-12 06:54:00,
2013-01-12 01:09:00,62.5,62.0,30.04,South,169,0.0,0.0,97,0.01,,,0.01,weatherlink.com 1.10,2013-01-12 07:09:00,
2013-01-12 01:24:00,62.5,62.0,30.04,South,169,0.0,0.0,97,0.01,,,0.01,weatherlink.com 1.10,2013-01-12 07:24:00,
2013-01-12 01:39:00,62.4,62.0,30.05,SSE,168,0.0,0.0,97,0.00,,,0.01,weatherlink.com 1.10,2013-01-12 07:39:00,
2013-01-12 01:54:00,63.1,62.0,30.04,South,187,0.0,1.0,97,0.00,,,0.01,weatherlink.com 1.10,2013-01-12 07:54:00,
2013-01-12 02:09:00,63.6,63.0,30.05,South,185,0.0,2.0,97,0.00,,,0.01,weatherlink.com 1.10,2013-01-12 08:09:00,
2013-01-12 02:24:00,63.9,63.0,30.05,South,178,0.0,3.0,97,0.00,,,0.01,weatherlink.com 1.10,2013-01-12 08:24:00,
2013-01-12 02:39:00,63.9,63.0,30.05,SSW,203,0.0,1.0,98,0.00,,,0.01,weatherlink.com 1.10,2013-01-12 08:39:00,
2013-01-12 02:54:00,63.9,63.0,30.05,SSW,203,0.0,0.0,97,0.00,,,0.01,weatherlink.com 1.10,2013-01-12 08:54:00,
2013-01-12 03:09:00,63.9,63.0,30.05,West,270,0.0,1.0,97,0.00,,,0.01,weatherlink.com 1.10,2013-01-12 09:09:00,
2013-01-12 03:24:00,64.1,63.0,30.04,SSW,207,0.0,1.0,97,0.00,,,0.01,weatherlink.com 1.10,2013-01-12 09:24:00,
2013-01-12 03:39:00,63.9,63.0,30.04,SSW,205,0.0,0.0,97,0.01,,,0.02,weatherlink.com 1.10,2013-01-12 09:39:00,
2013-01-12 03:54:00,63.9,63.0,30.02,South,179,0.0,4.0,97,0.01,,,0.02,weatherlink.com 1.10,2013-01-12 09:54:00,
2013-01-12 04:09:00,63.9,63.0,30.01,SSW,203,0.0,1.0,97,0.01,,,0.02,weatherlink.com 1.10,2013-01-12 10:09:00,
2013-01-12 04:24:00,63.9,63.0,30.01,South,184,0.0,3.0,97,0.01,,,0.02,weatherlink.com 1.10,2013-01-12 10:24:00,
2013-01-12 04:39:00,63.9,63.0,30.02,South,171,0.0,3.0,97,0.00,,,0.02,weatherlink.com 1.10,2013-01-12 10:39:00,
2013-01-12 04:54:00,64.0,63.0,30.02,SSW,200,0.0,6.0,97,0.00,,,0.02,weatherlink.com 1.10,2013-01-12 10:54:00,
2013-01-12 05:10:00,64.0,63.0,30.03,South,191,0.0,3.0,97,0.00,,,0.02,weatherlink.com 1.10,2013-01-12 11:10:00,
2013-01-12 05:24:00,64.2,63.0,30.04,SSW,211,0.0,2.0,97,0.00,,,0.02,weatherlink.com 1.10,2013-01-12 11:24:00,
2013-01-12 05:39:00,64.2,63.0,30.04,WNW,284,0.0,2.0,97,0.00,,,0.02,weatherlink.com 1.10,2013-01-12 11:39:00,
2013-01-12 05:54:00,64.2,63.0,30.05,SW,219,0.0,2.0,97,0.01,,,0.03,weatherlink.com 1.10,2013-01-12 11:54:00,
2013-01-12 06:09:00,64.2,63.0,30.05,WSW,238,0.0,4.0,97,0.01,,,0.03,weatherlink.com 1.10,2013-01-12 12:09:00,
2013-01-12 06:24:00,64.1,63.0,30.04,South,190,0.0,2.0,97,0.01,,,0.03,weatherlink.com 1.10,2013-01-12 12:24:00,
2013-01-12 06:39:00,64.1,63.0,30.05,SSW,207,0.0,1.0,97,0.01,,,0.03,weatherlink.com 1.10,2013-01-12 12:39:00,
2013-01-12 06:54:00,64.1,63.0,30.05,South,179,0.0,4.0,97,0.00,,,0.03,weatherlink.com 1.10,2013-01-12 12:54:00,
2013-01-12 07:09:00,64.1,63.0,30.05,South,178,0.0,1.0,97,0.00,,,0.03,weatherlink.com 1.10,2013-01-12 13:09:00,
2013-01-12 07:24:00,64.1,63.0,30.05,SSW,194,0.0,1.0,97,0.00,,,0.03,weatherlink.com 1.10,2013-01-12 13:24:00,
2013-01-12 07:39:00,64.2,63.0,30.06,SSE,161,0.0,3.0,97,0.00,,,0.03,weatherlink.com 1.10,2013-01-12 13:39:00,
2013-01-12 07:54:00,64.3,64.0,30.06,SSW,207,0.0,3.0,97,0.00,,,0.03,weatherlink.com 1.10,2013-01-12 13:54:00,
2013-01-12 08:09:00,64.3,64.0,30.06,South,190,0.0,4.0,97,0.00,,,0.03,weatherlink.com 1.10,2013-01-12 14:09:00,
2013-01-12 08:24:00,64.4,64.0,30.07,South,185,0.0,2.0,97,0.00,,,0.03,weatherlink.com 1.10,2013-01-12 14:24:00,
2013-01-12 08:39:00,64.5,64.0,30.07,South,182,0.0,1.0,97,0.00,,,0.03,weatherlink.com 1.10,2013-01-12 14:39:00,
2013-01-12 08:54:00,64.7,64.0,30.07,West,263,0.0,4.0,98,0.00,,,0.03,weatherlink.com 1.10,2013-01-12 14:54:00,
2013-01-12 09:09:00,64.9,64.0,30.07,SSE,165,0.0,4.0,97,0.00,,,0.03,weatherlink.com 1.10,2013-01-12 15:09:00,
2013-01-12 09:24:00,65.2,64.0,30.07,SE,138,0.0,4.0,97,0.00,,,0.03,weatherlink.com 1.10,2013-01-12 15:24:00,
2013-01-12 09:39:00,65.3,65.0,30.07,South,186,0.0,2.0,98,0.00,,,0.03,weatherlink.com 1.10,2013-01-12 15:39:00,
2013-01-12 09:54:00,65.2,64.0,30.07,WSW,254,0.0,2.0,97,0.00,,,0.03,weatherlink.com 1.10,2013-01-12 15:54:00,
2013-01-12 10:09:00,65.3,65.0,30.07,South,173,1.0,3.0,97,0.00,,,0.03,weatherlink.com 1.10,2013-01-12 16:09:00,
2013-01-12 10:24:00,65.4,64.0,30.06,SSE,161,0.0,6.0,96,0.00,,,0.03,weatherlink.com 1.10,2013-01-12 16:24:00,
2013-01-12 10:39:00,65.8,64.0,30.06,South,190,0.0,3.0,95,0.00,,,0.03,weatherlink.com 1.10,2013-01-12 16:39:00,
2013-01-12 10:54:00,66.3,64.0,30.05,WSW,246,0.0,5.0,93,0.00,,,0.03,weatherlink.com 1.10,2013-01-12 16:54:00,
2013-01-12 11:09:00,67.0,64.0,30.04,West,274,0.0,3.0,91,0.00,,,0.03,weatherlink.com 1.10,2013-01-12 17:09:00,
2013-01-12 11:25:00,68.4,65.0,30.03,WSW,246,0.0,5.0,89,0.00,,,0.03,weatherlink.com 1.10,2013-01-12 17:25:00,
2013-01-12 11:40:00,69.2,65.0,30.02,South,188,0.0,2.0,87,0.00,,,0.03,weatherlink.com 1.10,2013-01-12 17:40:00,
2013-01-12 11:55:00,69.9,66.0,30.02,SSE,164,2.0,5.0,86,0.00,,,0.03,weatherlink.com 1.10,2013-01-12 17:55:00,
2013-01-12 12:10:00,70.7,65.0,30.01,WSW,250,1.0,6.0,81,0.00,,,0.03,weatherlink.com 1.10,2013-01-12 18:10:00,
2013-01-12 12:25:00,70.8,65.0,30.00,South,169,1.0,3.0,82,0.00,,,0.03,weatherlink.com 1.10,2013-01-12 18:25:00,
2013-01-12 12:43:00,71.2,66.0,30.00,NW,312,1.0,4.0,82,0.00,,,0.03,weatherlink.com 1.10,2013-01-12 18:43:00,
2013-01-12 12:55:00,71.0,64.0,30.00,WSW,244,0.0,6.0,79,0.00,,,0.03,weatherlink.com 1.10,2013-01-12 18:55:00,
2013-01-12 13:10:00,71.1,65.0,30.00,SSW,198,0.0,2.0,82,0.00,,,0.03,weatherlink.com 1.10,2013-01-12 19:10:00,
2013-01-12 13:25:00,71.4,65.0,29.99,SW,222,0.0,4.0,80,0.00,,,0.03,weatherlink.com 1.10,2013-01-12 19:25:00,
2013-01-12 13:40:00,71.3,66.0,29.98,SSW,202,0.0,1.0,83,0.00,,,0.03,weatherlink.com 1.10,2013-01-12 19:40:00,
2013-01-12 13:55:00,70.5,66.0,29.99,SW,220,0.0,0.0,84,0.00,,,0.03,weatherlink.com 1.10,2013-01-12 19:55:00,
2013-01-12 14:10:00,70.4,64.0,29.98,SW,221,0.0,4.0,80,0.00,,,0.03,weatherlink.com 1.10,2013-01-12 20:10:00,
2013-01-12 14:25:00,70.4,64.0,29.98,SW,229,0.0,4.0,79,0.00,,,0.03,weatherlink.com 1.10,2013-01-12 20:25:00,
2013-01-12 14:40:00,70.3,63.0,29.99,West,280,0.0,4.0,78,0.00,,,0.03,weatherlink.com 1.10,2013-01-12 20:40:00,
2013-01-12 14:55:00,70.1,63.0,29.98,SW,233,2.0,2.0,79,0.00,,,0.03,weatherlink.com 1.10,2013-01-12 20:55:00,
2013-01-12 15:10:00,70.1,64.0,29.98,SW,228,0.0,1.0,80,0.00,,,0.03,weatherlink.com 1.10,2013-01-12 21:10:00,
2013-01-12 15:25:00,69.7,64.0,29.97,South,186,1.0,2.0,81,0.00,,,0.03,weatherlink.com 1.10,2013-01-12 21:25:00,
2013-01-12 15:40:00,69.3,63.0,29.98,WSW,244,0.0,1.0,81,0.00,,,0.03,weatherlink.com 1.10,2013-01-12 21:40:00,
2013-01-12 15:58:00,68.8,64.0,29.98,South,176,0.0,1.0,83,0.00,,,0.03,weatherlink.com 1.10,2013-01-12 21:58:00,
2013-01-12 16:10:00,68.5,63.0,29.98,South,176,0.0,0.0,83,0.00,,,0.03,weatherlink.com 1.10,2013-01-12 22:10:00,
2013-01-12 16:25:00,68.2,63.0,29.98,South,189,0.0,0.0,84,0.00,,,0.03,weatherlink.com 1.10,2013-01-12 22:25:00,
2013-01-12 16:40:00,67.7,63.0,29.98,SSW,206,0.0,1.0,84,0.00,,,0.03,weatherlink.com 1.10,2013-01-12 22:40:00,
2013-01-12 16:55:00,67.5,63.0,29.98,South,188,0.0,1.0,85,0.00,,,0.03,weatherlink.com 1.10,2013-01-12 22:55:00,
2013-01-12 17:10:00,67.3,62.0,29.97,South,190,0.0,4.0,84,0.00,,,0.03,weatherlink.com 1.10,2013-01-12 23:10:00,
2013-01-12 17:25:00,67.2,63.0,29.97,SE,134,0.0,2.0,85,0.00,,,0.03,weatherlink.com 1.10,2013-01-12 23:25:00,
2013-01-12 17:40:00,66.9,62.0,29.96,South,176,0.0,4.0,85,0.00,,,0.03,weatherlink.com 1.10,2013-01-12 23:40:00,
2013-01-12 17:54:00,66.5,62.0,29.97,South,186,0.0,3.0,85,0.00,,,0.03,weatherlink.com 1.10,2013-01-12 23:54:00,
2013-01-12 18:10:00,66.3,62.0,29.96,SSW,199,0.0,2.0,85,0.00,,,0.03,weatherlink.com 1.10,2013-01-13 00:10:00,
2013-01-12 18:25:00,66.4,62.0,29.96,South,184,0.0,3.0,84,0.00,,,0.03,weatherlink.com 1.10,2013-01-13 00:25:00,
2013-01-12 18:39:00,66.0,61.0,29.98,South,184,0.0,0.0,85,0.00,,,0.03,weatherlink.com 1.10,2013-01-13 00:39:00,
2013-01-12 18:55:00,65.7,61.0,29.96,SSW,203,0.0,2.0,85,0.00,,,0.03,weatherlink.com 1.10,2013-01-13 00:55:00,
2013-01-12 19:10:00,65.2,61.0,29.96,WSW,250,3.0,3.0,85,0.00,,,0.03,weatherlink.com 1.10,2013-01-13 01:10:00,
2013-01-12 19:25:00,64.9,61.0,29.95,SSE,148,0.0,2.0,86,0.00,,,0.03,weatherlink.com 1.10,2013-01-13 01:25:00,
2013-01-12 19:40:00,64.5,60.0,29.95,SSW,204,0.0,1.0,86,0.00,,,0.03,weatherlink.com 1.10,2013-01-13 01:40:00,
2013-01-12 19:55:00,64.0,60.0,29.94,South,189,0.0,2.0,87,0.00,,,0.03,weatherlink.com 1.10,2013-01-13 01:55:00,
2013-01-12 20:10:00,64.1,60.0,29.95,South,184,0.0,4.0,87,0.00,,,0.03,weatherlink.com 1.10,2013-01-13 02:10:00,
2013-01-12 20:25:00,64.1,60.0,29.95,SSW,211,0.0,0.0,87,0.00,,,0.03,weatherlink.com 1.10,2013-01-13 02:25:00,
2013-01-12 20:40:00,64.0,60.0,29.95,South,178,0.0,3.0,86,0.00,,,0.03,weatherlink.com 1.10,2013-01-13 02:40:00,
2013-01-12 20:55:00,63.7,60.0,29.95,South,185,0.0,0.0,87,0.00,,,0.03,weatherlink.com 1.10,2013-01-13 02:55:00,
2013-01-12 21:10:00,63.2,59.0,29.95,South,191,0.0,3.0,87,0.00,,,0.03,weatherlink.com 1.10,2013-01-13 03:10:00,
2013-01-12 21:25:00,63.0,59.0,29.96,South,191,0.0,1.0,88,0.00,,,0.03,weatherlink.com 1.10,2013-01-13 03:25:00,
2013-01-12 21:40:00,62.7,59.0,29.96,SSW,204,0.0,0.0,88,0.00,,,0.03,weatherlink.com 1.10,2013-01-13 03:40:00,
2013-01-12 21:55:00,62.0,59.0,29.95,South,180,0.0,1.0,89,0.00,,,0.03,weatherlink.com 1.10,2013-01-13 03:55:00,
2013-01-12 22:10:00,61.2,58.0,29.94,South,191,0.0,1.0,90,0.00,,,0.03,weatherlink.com 1.10,2013-01-13 04:10:00,
2013-01-12 22:25:00,61.1,59.0,29.94,SSW,210,0.0,3.0,91,0.00,,,0.03,weatherlink.com 1.10,2013-01-13 04:25:00,
2013-01-12 22:40:00,61.0,58.0,29.94,SW,236,0.0,0.0,90,0.00,,,0.03,weatherlink.com 1.10,2013-01-13 04:40:00,
2013-01-12 22:55:00,60.9,58.0,29.94,WSW,239,0.0,4.0,90,0.00,,,0.03,weatherlink.com 1.10,2013-01-13 04:55:00,
2013-01-12 23:10:00,60.9,58.0,29.94,South,187,0.0,2.0,90,0.00,,,0.03,weatherlink.com 1.10,2013-01-13 05:10:00,
2013-01-12 23:26:00,60.7,58.0,29.94,South,169,0.0,2.0,91,0.00,,,0.03,weatherlink.com 1.10,2013-01-13 05:26:00,
2013-01-12 23:40:00,60.6,58.0,29.94,SSE,153,0.0,4.0,91,0.00,,,0.03,weatherlink.com 1.10,2013-01-13 05:40:00,
2013-01-12 23:55:00,60.6,58.0,29.94,West,265,1.0,2.0,91,0.00,,,0.03,weatherlink.com 1.10,2013-01-13 05:55:00,